Showing default

ZHUHAI-1 02, 42759

Orbit data source: Space-Track

ZHUHAI-1 02, 42759 is a payload satellite owned by Zhuhai Orbita (CN) in LEO that was launched on Thu, 15 Jun 2017 UTC via a CHANG ZHENG 4B launch vehicle from the Jiuquan Satellite Launch Center, China (JSC). Payload-class satellites include a variety of spacecraft equipped with specific instruments for various scientific and technological missions. These include communications satellites like Starlink; space stations such as the ISS; scientific satellites like the Hubble; Earth observation satellites from companies like Planet Labs, Umbra, and HawkEye 360; GPS; miniature CubeSats for education and research; and military/defense satellites.

Loading next visibility...
Identifier
42759, 2017-034B
Orbit
LEO
Last TLE update
10 hours ago
Origin
Manufacturer
Zhuhai Orbita
Mission
Operational Commercial Imaging
Bus & Motor
OVS-1, Unknown motor
Mass
50 kg wet, 50 kg dry
Launch date (UTC)
2017-06-15 (8 years ago)
Launch vehicle
CHANG ZHENG 4B
Launch site
Jiuquan Satellite Launch Center, China (JSC)
Object type
Payload
Rocket body
Debris
Shape & HBR
Box, 1 m
Radar Cross Section
0.375 m², Medium (>0.1 m² and < 1m²)

Expand to show TLE details & history

TLE from 10 hours ago
0 ZHUHAI-1 02
1 42759U 17034B   25183.70228799  .00059997  00000-0  56406-3 0  9998
2 42759  43.0046 183.7766 0019074  91.5352 268.7699 15.66045610446229
Epoch: 2025-07-02T16:51Z
TLE epoch observation values (Epoch: 2025-07-02T16:51:17.682Z)
Latitude
-0.00002°
Longitude
9.97331°
Altitude
370.306 km
Speed
7.689 km/s
True Right ascension
12h 15m 06s
True Declination
0° 00' 00"
Sunlit
Object was in daylight at epoch
Visualization orbit readout
Latitude
-16.84222°
Longitude
-153.70478°
Altitude
378.006 km
Speed
7.681 km/s
Apparent Right ascension
01h 54m 27s
Apparent Declination
-28° 14' 32"
Sunlit
Object is in daylight
Visualization observer readout
Local Sidereal Time
14:39:33
Azimuth
41.984° NE
Elevation
-75.077°
Doppler factor
1
Orbital elements
Apogee altitude
385.086 km
Perigee altitude
359.334 km
Semi-major axis
6,750.347 km
Eccentricity
0.00191
Inclination
43.0046°
RAAN
183.7766°
Arg. of periapsis
91.5352°
True anomaly
Unknown
Mean anomaly
268.7699°
Eccentric anomaly
Unknown
Mean motion
3.9134 °/min
Orbital period
91.99 mins
BSTAR
0.00056406
Loading maneuver chart data...
Loading SW <> Apogee altitude chart data...
Loading historical data...
Loading historical data...
Loading historical data...
Loading historical data...
Loading historical data...
Loading historical data...
Loading historical data...

ZHUHAI-1 02 Visibility forecast

Observer location: undefined°, undefined°

Span
Click to sort rows by Start time (UTC) header in descending order
Start Az.
Max El. time (UTC)
Max El. Az.
Max El.
End time (UTC)
End Az.
5 mins2025-07-03 03:47:28.150Z227.069° WSW2025-07-03 03:50:28.150Z125.136° SE33.238°2025-07-03 03:52:28.150Z82.464° E
4 mins2025-07-03 07:01:28.150Z301.061° NW2025-07-03 07:03:28.150Z40.435° NE35.291°2025-07-03 07:05:28.150Z83.629° E
|